{"data":{"norad_id":54163,"epoch":"2026-05-25T01:17:52.943136Z","epoch_age_seconds":71119,"freshness":"FRESH","line1":"1 54163U 22141G   26145.05408499 -.00001207  00000+0 -57726-4 0  9998","line2":"2 54163  53.2151  21.4754 0001401  89.7857 270.3295 15.08848715197384","mean_motion":15.08848715,"eccentricity":0.0001401,"inclination_deg":53.2151,"raan_deg":21.4754,"arg_perigee_deg":89.7857,"mean_anomaly_deg":270.3295,"bstar":-5.7726e-5,"rev_number":19738,"period_min":95.437003437419,"perigee_km":538.74755951332,"apogee_km":540.6859421343,"semimajor_km":6917.8537508238,"source":"CELESTRAK","updated_at":"2026-05-25T13:38:17.660244Z"}}